Tracking 20475 objects as of 27-Feb-2020
HD Live streaming from Space Station
objects crossing your sky now

COSMOS 883

Track COSMOS 883 now!
10-day predictions
COSMOS 883 is classified as:


NORAD ID: 9610
Int'l Code: 1976-122A
Perigee: 959.3 km
Apogee: 1,010.6 km
Inclination: 83.0 °
Period: 104.6 minutes
Semi major axis: 7355 km
RCS: 1.9565 m2 (large)
Launch date: December 15, 1976
Source: Commonwealth of Independent States (former USSR) (CIS)
Launch site: PLESETSK MISSILE AND SPACE COMPLEX (PKMTR)
aabbcc
Your satellite tracking list
Your tracking list is empty




NASA's NSSDC Master Catalog

Two Line Element Set (TLE):
1  9610U 76122A   20057.28463416 +.00000041 +00000-0 +26413-4 0  9997
2  9610 082.9560 171.6355 0034907 171.2625 188.9148 13.76086659168222
Source of the keplerian elements: AFSPC